                ,  1.160,  1.308,  1.456,  1.604,  1.751,  1.899,  2.047,  2.194,  2.342,  2.490,  2.638,  2.785,  2.933,  3.081,  3.229,  3.376,  3.524,  3.672,  3.819,  3.967,  4.115,  4.263,  4.410,  4.558,  4.706,  4.853,  5.001,  5.149,  5.297,  5.444
2005/11/03 00:00,   37.3,   33.8,   31.1,   28.7,   26.7,   24.7,   22.8,   21.0,   19.8,   18.6,   17.5,   16.6,   16.0,   15.0,   14.3,   13.7,   11.7,   10.9,   10.4,   10.2,    9.3,    8.8,    8.0,  999.0,  999.0,    5.6,    3.1,   -0.4,   -2.3,  999.0
2005/11/03 00:10,   34.6,   31.5,   29.2,   27.6,   26.0,   24.1,   22.5,   20.9,   20.1,   19.3,   18.2,   17.2,   16.1,   15.2,   14.9,   13.9,   12.6,   11.7,   10.5,    9.5,    8.3,    7.4,    7.0,    8.7,   11.5,    4.9,    1.0,   -2.2,   -1.6,    1.4
2005/11/03 00:20,   31.2,   27.8,   24.9,   22.8,   21.3,   20.5,   19.6,   18.2,   17.1,   15.7,   14.4,   13.4,   12.9,   12.5,   12.1,   11.4,    9.5,    8.9,    8.7,    9.0,    8.2,    8.3,    8.4,   13.5,   15.0,    8.0,    3.7,   -0.8,   -2.2,    2.1
2005/11/03 00:30,   26.5,   22.6,   19.9,   17.2,   15.2,   13.0,   11.5,    9.9,    8.6,    7.7,    8.3,    8.9,    9.4,    9.4,    9.5,    8.7,    5.8,    5.1,    5.6,    6.3,    4.1,    3.8,    3.8,    6.0,    9.7,    4.4,    3.0,    0.6,   -1.3,    1.3
2005/11/03 00:40,   23.1,   18.6,   16.2,   13.6,   11.7,    9.0,    6.8,    2.5,    1.0,   -0.6,   -1.4,   -0.8,    1.9,    4.6,    7.5,    7.6,    3.5,    2.8,    3.0,    4.9,    2.4,    2.3,    2.2,    3.1,   10.1,    3.7,   -1.3,   -2.0,   -2.0,   -1.3
2005/11/03 00:50,   22.2,   17.5,   14.4,   10.8,    8.2,    4.4,    3.7,    0.1,   -2.9,   -0.2,  999.0,   -3.2,    0.9,    4.2,    6.4,    6.5,   -0.3,   -0.4,    0.8,    3.3,   -1.9,    0.1,   -1.6,    2.8,    4.4,   -2.1,   -3.7,   -4.1,   -3.8,  999.0
2005/11/03 01:00,   17.7,   10.4,    6.7,    3.1,    1.7,    0.4,   -0.3,   -3.1,  999.0,   -2.5,  999.0,   -2.3,    2.4,    3.5,    8.2,    6.9,   -1.0,   -0.7,    1.3,    2.9,   -2.7,   -1.7,   -3.4,    2.9,    2.0,   -3.0,   -2.9,   -3.8,   -4.4,    1.5
2005/11/03 01:10,   17.5,    9.2,    5.1,    3.4,    1.9,    1.1,   -1.7,   -1.0,  999.0,   -4.8,  999.0,   -3.4,    1.6,    4.4,    7.4,    7.3,   -0.2,   -0.0,    2.3,    3.3,   -1.3,   -1.4,   -0.6,    4.0,    2.2,   -2.6,   -2.1,   -3.9,   -3.9,    1.0
2005/11/03 01:20,   14.2,    4.7,    5.9,    2.3,    2.8,   -1.6,   -4.9,   -3.5,  999.0,  999.0,  999.0,   -2.4,    1.3,    5.2,    7.2,    7.1,   -0.5,   -1.4,    1.8,    3.6,   -1.0,    0.3,   -0.5,    3.5,    3.6,   -3.4,   -3.3,  999.0,   -2.5,    0.9
2005/11/03 01:30,   12.4,    5.4,    3.9,    2.6,    1.9,    2.9,   -1.5,   -0.4,  999.0,   -6.1,  999.0,   -5.4,    1.5,    4.0,    8.3,    8.7,   -0.2,   -1.3,    0.8,    4.5,   -1.6,   -1.4,   -0.1,    2.2,    4.2,   -2.3,   -3.1,   -4.5,   -2.8,    1.2
2005/11/03 01:40,   19.8,   15.7,   10.6,    7.1,    4.8,    5.1,    4.0,   -6.4,  999.0,  999.0,  999.0,   -4.8,    0.9,    1.8,    6.8,    5.7,   -1.3,   -1.6,   -0.8,    2.8,   -1.6,   -2.0,   -0.2,    1.5,    1.6,   -2.5,   -2.7,   -3.6,   -3.5,    0.5
2005/11/03 01:50,   19.9,   11.9,    7.6,    4.6,    2.9,    3.6,   -0.0,    0.3,  999.0,  999.0,  999.0,   -3.3,    0.8,    2.8,    5.6,    6.3,   -1.5,   -2.0,    0.5,    2.2,   -2.2,   -2.2,   -2.5,    2.5,    2.8,   -1.9,   -3.9,   -2.8,   -2.6,    2.2
2005/11/03 02:00,   19.8,   13.2,   10.9,    9.1,    7.3,    7.7,    5.7,    2.5,    1.0,   -2.5,   -2.4,   -1.4,    2.7,    4.2,    8.1,    8.1,   -0.6,   -0.0,    1.0,    3.1,   -3.6,   -1.1,   -0.5,    3.2,    2.8,   -3.1,   -3.0,   -3.4,   -3.0,    0.4
2005/11/03 02:10,   28.5,   25.4,   22.8,   21.1,   19.1,   16.7,   13.7,   11.0,    7.8,    5.1,    2.6,    0.3,    3.4,    3.7,    8.9,    7.8,    1.0,   -0.4,    1.4,    3.5,   -2.0,   -2.0,    0.4,    4.2,    4.1,   -2.4,   -2.8,   -2.6,   -2.6,    0.0
2005/11/03 02:20,   31.2,   27.8,   25.3,   23.4,   21.4,   19.7,   17.4,   15.4,   12.8,   11.2,    9.2,    8.0,    7.2,    6.5,    9.3,    8.9,    4.8,    0.9,    2.0,    4.2,   -1.9,   -2.2,   -1.4,    4.3,    4.1,   -0.7,   -0.5,   -2.8,   -3.6,   -0.0
2005/11/03 02:30,   28.7,   24.4,   21.2,   18.8,   16.5,   15.1,   12.9,   11.7,   11.1,   10.1,   10.0,   10.7,   10.6,   10.2,   10.2,    9.5,    7.4,    6.3,    6.0,    5.9,    4.1,    2.0,    3.7,    8.6,  999.0,    4.5,    1.8,   -0.4,   -1.1,    3.0
2005/11/03 02:40,   29.0,   25.4,   22.9,   20.6,   18.1,   15.8,   13.7,   11.7,    9.8,    8.5,    6.8,    6.7,    7.9,    8.8,   10.8,   10.9,    7.3,    7.5,    7.8,    7.5,    5.5,    5.2,    5.3,   11.5,   13.4,    5.8,    2.7,    1.9,    1.3,    1.8
2005/11/03 02:50,   31.4,   27.7,   24.5,   21.8,   19.8,   18.2,   16.9,   15.4,   14.4,   13.4,   12.5,   12.3,   12.0,   12.1,   12.8,   12.8,   11.8,   11.0,   10.8,   10.4,   10.0,    9.2,    9.1,   16.3,   14.2,    6.3,    4.8,    2.7,    2.4,    7.4
2005/11/03 03:00,   28.8,   25.2,   23.1,   21.8,   20.3,   19.4,   18.0,   16.5,   15.3,   13.8,   12.2,   11.6,   11.3,   11.3,   12.3,   12.5,    9.7,    9.5,    9.4,    9.6,    8.2,    7.6,    8.3,   15.0,   14.3,    7.0,    5.0,    4.4,    2.9,    6.1
2005/11/03 03:10,   32.7,   29.0,   26.4,   24.5,   22.8,   21.1,   19.3,   17.4,   15.3,   13.4,   11.9,   10.8,    9.8,    9.4,    9.9,    9.3,    8.2,    8.2,    8.7,    8.0,    7.4,    7.3,    9.4,   17.3,   15.8,    7.9,    5.5,    4.9,    3.8,    2.5
2005/11/03 03:20,   37.0,   33.9,   31.7,   29.1,   26.8,   24.0,   21.2,   19.4,   17.4,   15.7,   14.2,   12.9,   12.1,   11.8,   12.0,   11.1,    9.8,    9.3,    9.0,    8.6,    8.0,    7.8,    9.4,   13.9,   12.5,    6.2,    4.4,    2.1,    2.1,    4.0
2005/11/03 03:30,   38.2,   34.2,   31.0,   28.0,   25.2,   22.3,   20.2,   18.3,   17.6,   17.3,   16.7,   15.5,   14.7,   14.1,   14.2,   13.9,   12.9,   14.0,   15.3,   15.4,   15.5,   14.8,   18.6,  999.0,   17.2,   13.1,    9.5,    6.5,    4.7,    4.4
2005/11/03 03:40,   34.7,   30.8,   26.2,   23.8,   20.6,   17.2,   15.9,   15.9,   16.2,   16.7,   17.0,   17.0,   16.3,   15.3,   14.4,   14.0,   12.9,   12.3,   11.8,   11.8,   11.5,   11.6,   13.8,   13.9,   11.2,    7.4,    3.7,    2.3,    2.1,    4.1
2005/11/03 03:50,   32.3,   27.9,   24.5,   21.9,   19.5,   17.3,   15.4,   13.5,   12.9,   13.5,   14.7,   15.1,   14.9,   14.5,   15.0,   14.2,   13.8,   13.4,   13.0,   12.1,   11.3,   10.8,   13.8,   13.4,    7.1,    4.4,    3.8,    2.0,    1.8,    2.6
2005/11/03 04:00,   33.1,   29.1,   26.1,   23.9,   22.1,   20.6,   19.6,   18.8,   18.0,   16.1,   14.0,   12.9,   13.1,   13.1,   12.8,   11.7,   10.7,   10.4,   10.2,    9.9,    9.1,    8.6,    9.9,   12.8,    6.3,    2.6,    0.2,   -0.3,   -1.1,    4.9
2005/11/03 04:10,   31.6,   27.1,   24.3,   21.7,   18.9,   16.4,   14.8,   14.0,   13.9,   13.6,   13.2,   12.6,   13.5,   12.3,   11.6,   10.0,   10.0,    9.0,    8.2,    7.8,    6.2,    5.0,    4.6,    9.8,    7.5,    0.8,   -1.2,   -3.0,   -1.8,    1.8
2005/11/03 04:20,   28.4,   23.0,   19.7,   16.8,   14.7,   11.2,    9.2,    8.0,    6.4,    6.2,    6.8,    7.6,    8.2,    9.3,   10.3,    9.2,    3.3,    2.8,    4.0,    5.5,    1.7,    0.4,    1.0,    6.0,    6.5,   -1.5,   -1.9,   -2.7,   -3.2,   -0.7
2005/11/03 04:30,   29.9,   26.1,   23.0,   20.8,   18.2,   16.2,   14.0,   11.6,   10.1,    6.9,    3.2,    2.7,    3.7,    6.1,    9.2,    8.3,    0.2,   -0.1,    2.5,    3.3,   -3.0,   -0.9,    0.5,    6.7,    5.4,   -0.2,   -1.8,   -2.5,   -3.8,    1.5
2005/11/03 04:40,   31.5,   28.6,   26.9,   25.9,   25.1,   24.4,   23.2,   21.9,   20.7,   18.5,   16.6,   14.9,   13.6,   12.3,   11.9,   10.8,    5.1,    5.1,    5.3,    5.4,    1.0,    2.5,    0.8,    6.2,    5.7,   -1.9,   -2.9,   -3.2,   -3.4,    0.9
2005/11/03 04:50,   34.6,   31.0,   28.3,   25.7,   23.3,   21.3,   19.8,   19.0,   18.5,   18.2,   18.4,   17.4,   16.4,   16.1,   15.4,   14.8,   13.9,   12.9,   12.0,   12.1,    9.6,    8.5,    8.2,   13.0,   12.5,    4.4,    2.7,    5.2,   -2.8,    0.9
2005/11/03 05:00,   25.6,   20.2,   19.1,   17.0,   15.7,   13.2,   12.9,   13.1,   15.3,   15.7,   14.9,   14.2,   13.9,   13.6,   13.4,   12.7,   12.1,   11.4,   11.1,   10.7,    9.9,   10.0,   11.3,   15.4,   13.5,    8.4,    5.2,    5.4,   -2.5,   -0.5
2005/11/03 05:10,   23.9,   18.1,   14.8,   13.2,   11.0,    9.5,    7.5,    5.6,    3.7,    3.2,    1.8,    2.0,    4.0,    6.2,    9.3,    9.5,    8.6,    9.1,    9.0,    8.8,    7.5,    7.0,    6.7,   10.0,    9.7,    3.4,   -0.3,   -2.3,   -3.9,   -0.2
2005/11/03 05:20,   20.7,   13.7,    9.0,    5.2,    2.3,   10.7,    7.8,    7.6,    4.6,    4.4,   -0.1,    0.0,    3.4,    6.0,    7.6,    7.5,    0.6,    0.1,    2.6,    4.8,    1.3,    2.1,    2.5,    7.3,    7.8,   -0.1,   -1.9,   -2.9,   -3.0,    0.2
2005/11/03 05:30,   21.0,   13.7,    7.9,    4.5,   -1.1,  999.0,   -1.9,  999.0,  999.0,   -3.4,   -3.8,   -2.7,    2.4,    4.8,    7.1,    6.5,   -0.6,   -0.7,    2.7,    4.2,    0.4,    1.0,    0.4,    6.3,    5.6,   -0.1,   -1.0,   -1.4,   -0.9,    3.2
2005/11/03 05:40,   22.7,   15.7,   10.7,    8.1,    7.0,    4.7,   -2.1,   -3.8,   -4.2,   -2.9,   -1.7,   -1.4,    1.8,    4.9,    8.8,    8.3,    5.0,    4.7,    5.8,    6.7,    5.7,    6.8,    7.4,    7.5,    4.9,    1.2,    0.2,   -1.6,   -2.4,    2.1
2005/11/03 05:50,   25.5,   20.6,   15.9,   12.0,    9.1,    7.3,    7.2,    8.0,    7.8,    8.5,    8.9,    9.5,   10.2,   10.8,   12.6,   13.0,   12.5,   12.3,   12.6,   12.8,   12.2,   11.9,   13.4,   12.9,    7.8,    5.3,    3.6,    1.8,    0.8,    2.4
2005/11/03 06:00,   24.4,   19.9,   15.6,   11.6,    9.3,    8.4,   10.0,   10.7,   11.7,   11.7,   11.5,   11.8,   12.2,   12.7,   13.4,   13.2,   13.1,   13.2,   13.6,   13.7,   13.4,   13.4,   16.0,   17.6,   12.3,    9.7,    7.8,    6.7,    5.0,    3.8
2005/11/03 06:10,   24.1,   18.4,   13.9,   10.2,    8.8,    6.0,    3.8,    4.9,    6.2,    7.6,   10.6,   11.8,   11.9,   11.0,   11.0,   10.7,   10.1,   10.2,   10.6,   10.8,   10.7,   11.0,   12.5,   15.7,   15.1,   11.5,   11.1,    9.5,    5.1,    3.6
2005/11/03 06:20,   24.4,   19.5,   15.5,   12.3,    8.8,    5.4,    3.7,    2.4,    1.4,    0.6,    2.0,    0.5,    2.1,    3.4,    7.7,    7.3,    2.9,    3.6,    4.3,    5.6,    3.0,    2.9,    3.1,    5.9,    6.2,    0.6,    0.5,   -0.4,   -2.9,   -0.1
2005/11/03 06:30,   25.4,   21.6,   19.5,   16.4,   13.3,   10.3,    7.8,    6.4,    4.0,    2.4,    2.3,    3.4,    4.8,    6.3,    9.4,    8.5,    3.0,    2.5,    5.1,    7.2,    1.7,    1.5,    1.6,    4.9,    4.7,   -1.9,   -3.0,   -5.4,  999.0,   -1.7
2005/11/03 06:40,   17.6,   14.0,   11.4,    8.6,    6.4,    5.0,    2.8,    1.6,    1.4,    0.8,   -0.5,    0.1,    3.3,    4.0,    6.9,    7.1,   -0.8,   -0.7,    2.9,    4.4,   -1.9,   -1.5,   -1.2,    3.4,    2.3,   -1.7,   -3.2,  999.0,   -3.9,  999.0
2005/11/03 06:50,   13.2,    6.1,    3.2,    3.2,    2.0,   -0.8,    2.5,    2.1,    2.8,    3.3,    0.5,   -0.7,    2.5,    2.9,    7.5,    7.5,   -1.5,    1.3,    2.0,    3.6,   -1.6,   -0.7,    0.0,    3.5,    2.0,   -2.5,   -2.5,   -3.5,   -3.3,    0.6
2005/11/03 07:00,   18.8,   16.3,   13.6,   11.5,    9.9,    8.5,    7.0,    5.7,    3.1,    3.0,   -1.0,   -1.8,    2.0,    3.9,    7.1,    6.7,   -0.2,   -2.3,    1.7,    4.0,   -1.0,   -0.2,   -0.3,    3.4,    4.1,   -1.3,   -2.4,   -2.3,   -2.1,    0.8
2005/11/03 07:10,   30.4,   27.7,   25.1,   23.0,   20.8,   19.1,   17.5,   15.6,   13.9,   12.7,   11.4,   10.5,    9.6,   10.3,   10.8,   10.6,    8.6,    7.5,    9.1,    8.3,    7.4,    6.5,    6.5,    8.9,    5.7,    0.4,   -0.1,   -2.2,   -2.5,    1.0
2005/11/03 07:20,   26.9,   23.3,   22.2,   20.4,   19.0,   17.8,   16.6,   16.1,   14.5,   13.2,   11.8,   10.9,   10.5,   10.5,   10.9,   11.0,    9.0,    8.6,    8.5,    8.6,    8.1,    7.9,    9.0,    9.8,    8.5,    4.0,   -1.8,   -1.8,   -3.3,    1.7
2005/11/03 07:30,   17.6,   14.1,   11.5,    9.1,    6.9,    5.9,    3.5,    3.9,    1.9,    0.2,   -0.3,    3.6,    3.8,    2.7,    7.0,    6.8,    0.7,    1.2,    1.9,    5.4,    1.2,    1.6,    2.1,    4.6,    3.6,   -1.4,   -3.6,   -5.0,   -3.5,    0.1
2005/11/03 07:40,   15.8,   11.3,    8.5,    4.9,    2.5,    2.7,   -2.0,   -2.4,   -2.0,   -6.1,   -6.9,   -2.7,    0.1,    2.1,    6.2,    6.4,   -2.6,   -1.4,   -0.0,    2.8,   -2.2,   -2.5,   -2.3,    2.3,    3.1,   -3.3,   -3.6,   -4.9,   -3.5,   -0.3
2005/11/03 07:50,   16.1,   10.9,    8.4,    5.9,    3.0,   -0.3,   -0.5,   -2.3,   -6.2,  999.0,  999.0,   -3.1,   -0.2,    2.1,    6.4,    6.0,   -1.5,   -0.7,   -1.0,    2.2,   -4.0,   -2.2,   -3.6,    2.2,    1.0,   -4.6,   -6.3,   -4.6,   -4.0,   -1.9
2005/11/03 08:00,   18.6,   13.8,   10.4,    8.6,    7.4,    5.4,    3.8,   -0.1,   -3.9,  999.0,  999.0,  999.0,    1.5,    2.3,    5.8,    5.6,    0.4,   -0.6,    1.1,    4.0,   -4.0,   -3.1,   -1.6,    0.1,    1.0,   -2.9,   -4.4,  999.0,  999.0,   -2.1
2005/11/03 08:10,   19.6,   13.9,   10.5,    8.0,    5.2,    5.2,    3.1,   -1.2,   -6.0,  999.0,  999.0,  999.0,    0.5,    1.6,    5.8,    5.1,   -3.3,   -1.7,    1.9,    4.0,   -2.9,   -3.0,   -2.4,    0.8,    1.2,   -2.5,  999.0,  999.0,  999.0,   -1.4
2005/11/03 08:20,   17.8,   11.4,    7.8,    9.0,   -1.7,    4.1,   -4.3,   -3.5,   -4.1,  999.0,   -5.0,   -6.2,    1.9,    0.9,    5.0,    4.7,   -3.2,   -2.4,   -0.3,    2.0,   -0.9,   -2.6,   -3.1,    1.3,   -1.0,   -6.8,  999.0,  999.0,  999.0,   -1.7
2005/11/03 08:30,   32.5,   27.5,   23.6,   17.9,   16.9,   12.3,    8.0,    4.4,   -0.6,   -6.7,   -7.2,   -4.0,   -2.0,   -0.4,    4.9,    4.8,   -2.2,   -3.3,    0.3,    1.7,   -3.5,   -3.1,   -2.0,    1.4,    1.2,   -3.9,   -3.3,  999.0,  999.0,   -3.2
2005/11/03 08:40,   31.0,   26.9,   23.6,   20.8,   18.9,   17.4,   15.5,   13.5,    8.6,    4.6,    1.1,   -3.5,   -2.1,    3.6,    4.4,    3.4,   -3.9,   -1.8,    1.1,    2.8,   -3.3,   -2.5,   -2.6,    2.1,   -0.2,   -2.7,   -2.6,   -5.9,  999.0,   -0.4
2005/11/03 08:50,   16.8,    9.4,    3.7,    0.3,    1.6,  999.0,  999.0,   -3.7,  999.0,  999.0,  999.0,   -6.7,   -0.7,    2.2,    6.5,    3.9,   -1.9,   -2.7,    0.2,    1.5,   -2.8,   -2.5,   -1.6,    2.5,    1.3,   -3.1,   -5.3,  999.0,  999.0,   -1.9
2005/11/03 09:00,   16.4,    9.0,    5.6,    1.8,   -0.2,    0.5,  999.0,   -6.1,  999.0,  999.0,  999.0,   -4.6,    1.5,    3.4,    6.9,    5.6,   -2.3,   -0.9,    1.0,    4.1,   -1.4,   -3.3,   -0.9,    2.3,    2.4,   -3.1,   -4.2,   -5.4,   -2.2,   -1.1
2005/11/03 09:10,   17.3,   12.2,   10.1,    7.4,    7.2,    7.2,    3.8,    2.2,   -0.8,   -3.0,   -6.7,  999.0,   -0.0,    2.7,    7.9,    6.0,   -1.1,   -1.7,   -0.3,    2.9,   -2.4,   -1.8,   -1.5,    2.2,    1.0,   -1.6,   -4.7,  999.0,   -1.7,   -1.2
2005/11/03 09:20,   28.0,   24.8,   21.6,   18.1,   14.4,   10.3,    6.6,    2.1,   -1.2,   -3.6,  999.0,  999.0,    0.6,    4.7,    7.1,    6.3,   -2.4,    0.4,    0.8,    3.3,   -1.9,   -2.0,   -0.2,    2.5,    1.9,   -1.9,   -2.8,   -5.5,   -2.8,   -0.2
2005/11/03 09:30,   21.6,   17.2,   13.8,   12.0,    8.7,    5.0,    3.5,   -0.8,   -4.0,   -6.1,  999.0,   -2.6,   -0.1,    3.7,    6.9,    5.8,   -2.8,   -2.1,    1.7,    2.2,   -2.3,   -1.7,   -1.8,    2.4,    0.7,   -2.6,   -3.9,   -4.5,  999.0,    1.5
2005/11/03 09:40,   31.0,   26.8,   24.0,   21.0,   18.0,   14.8,   11.9,    8.1,    4.6,    1.7,   -1.4,   -2.9,   -1.3,    3.8,    6.6,    6.7,   -0.9,   -1.3,    0.8,    3.0,   -1.7,    0.4,   -2.0,    3.3,    1.9,   -2.3,   -2.0,  999.0,   -2.2,   -1.5
2005/11/03 09:50,   29.3,   22.7,   18.2,   14.8,   13.3,   10.2,    8.6,    7.2,    4.4,    1.9,   -0.0,    1.1,    2.9,    5.3,    7.8,    6.6,   -0.4,    0.0,    1.8,    3.1,   -1.8,    0.0,   -0.7,    3.1,    2.3,   -2.8,   -2.2,   -2.6,   -2.4,    0.3
2005/11/03 10:00,   25.4,   19.9,   16.0,   12.5,    9.6,    7.1,    6.1,    3.2,    1.4,    0.4,   -0.8,   -0.1,    3.1,    4.6,    9.0,    6.9,    1.0,    0.3,    1.2,    4.5,    0.2,    0.6,   -0.1,    4.8,    4.0,   -2.5,   -2.6,   -3.7,   -3.1,    0.5
2005/11/03 10:10,   22.2,   15.1,   10.0,    5.8,   -0.2,  999.0,   -2.2,   -2.3,   -4.4,   -4.3,   -5.0,   -0.7,    2.9,    4.2,    7.9,    6.8,    0.6,    0.3,    1.3,    4.0,   -0.3,   -0.2,   -0.9,    5.4,    4.4,   -1.3,   -2.7,   -2.9,   -4.4,    1.0
2005/11/03 10:20,   22.6,   15.2,   10.5,    8.1,    2.8,    0.4,   -1.8,   -0.9,   -2.0,   -7.0,  999.0,   -2.7,    1.3,    4.5,    8.3,    6.9,   -0.0,    1.0,    3.0,    5.4,   -1.3,   -0.6,   -2.1,    3.9,    3.1,   -1.8,   -2.3,   -3.2,   -4.5,    0.4
2005/11/03 10:30,   19.4,   13.6,    7.9,    8.6,    5.2,    2.3,    0.4,   -0.8,  999.0,  999.0,  999.0,   -1.2,    4.8,    4.7,    7.6,    6.3,    0.6,   -1.4,    2.5,    2.9,  999.0,  999.0,  999.0,    4.0,    4.0,   -2.0,   -2.2,   -2.1,   -4.6,    0.0
